Regional Weather Roundup
Issued by NWS

Home | Current Version | Previous Version | Graphics & Text | Print | Product List | Glossary Off
Versions: 1 2 3 4 5 6 7 8 9 10 11 12 13 14 15 16 17 18 19 20 21 22 23 24 25 26 27 28 29 30 31 32 33 34 35 36 37 38 39 40 41 42 43 44 45 46 47 48 49 50

000
ASUS43 KMKX 221921
RWRWI

WISCONSIN REGIONAL WEATHER ROUNDUP
NATIONAL WEATHER SERVICE MILWAUKEE/SULLIVAN WI
100 PM CST MON DEC 22 2014

NOTE: "FAIR" INDICATES FEW OR NO CLOUDS BELOW 12,000 FEET WITH NO
SIGNIFICANT WEATHER AND/OR OBSTRUCTIONS TO VISIBILITY.

WIZ001-002-006>008-014>016-023>028-222000-
NORTHWEST WISCONSIN

CITY           SKY/WX    TMP DP  RH WIND       PRES   REMARKS
SUPERIOR ARPT  DRIZZLE   36  34  95 E3        29.69F
ASHLAND        CLOUDY    37  33  85 VRB5      29.71F WCI  33
HAYWARD        CLOUDY    34  32  92 VRB7G17   29.68F FOG     WCI  28
SIREN          CLOUDY    35  34  96 SE6       29.66F FOG     WCI  30
CUMBERLAND     CLOUDY    32  32 100 SE10      29.66F FOG     WCI  24
RICE LAKE      CLOUDY    34  33  93 E8        29.69F FOG     WCI  28
CHETEK         CLOUDY    34  33  93 E9        29.68F FOG     WCI  27
LADYSMITH      CLOUDY    35  33  92 E9        29.72F FOG     WCI  28
EAU CLAIRE     CLOUDY    38  33  82 SE7       29.67F WCI  33
MENOMONIE      CLOUDY    38  35  87 E9        29.66F FOG     WCI  32
NEW RICHMOND   CLOUDY    35  35  99 E10       29.63F FOG     WCI  28
OSCEOLA        LGT RAIN  36  36 100 E12G17    29.66F WCI  28
$$

WIZ003>005-009-010-017-018-222000-
NORTH CENTRAL WISCONSIN

CITY           SKY/WX    TMP DP  RH WIND       PRES   REMARKS
MANITOWISH WTR CLOUDY    32  32 100 SE6       29.73F FOG     WCI  26
ARBOR VITAE    FOG       34  33  95 SE7       29.74F VSB 1   WCI  28
WOODRUFF       FOG       34  33  95 SE7       29.74F VSB 1   WCI  28
RHINELANDER    CLOUDY    32  31  96 SE9       29.75F FOG     WCI  24
EAGLE RIVER    CLOUDY    32  32  99 SE8       29.75F FOG     WCI  25
LAND O LAKES   CLOUDY    33  32  98 SE6       29.76F FOG     WCI  27
PHILLIPS       CLOUDY    32  32  98 E6        29.71F FOG     WCI  27
TOMAHAWK       CLOUDY    32  31  96 CALM      29.75F FOG
MEDFORD        CLOUDY    33  32  96 E8        29.71F FOG     WCI  26
MERRILL        CLOUDY    34  32  94 SE7       29.75F FOG     WCI  28
$$

WIZ029-030-035-036-043>047-222000-
CENTRAL WISCONSIN

CITY           SKY/WX    TMP DP  RH WIND       PRES   REMARKS
WAUSAU         CLOUDY    35  32  88 SE8       29.74F FOG     WCI  29
MOSINEE        CLOUDY    34  34 100 E9        29.75F FOG     WCI  26
MARSHFIELD     CLOUDY    36  32  85 SE12      29.72F FOG     WCI  28
STEVENS POINT  CLOUDY    32  30  92 E12       29.76F FOG     WCI  23
WAUPACA        CLOUDY    38  33  81 E12       29.79F HAZE    WCI  31
WAUTOMA        CLOUDY    38  32  79 E7        29.77F WCI  33
WISC RAPIDS    CLOUDY    37  30  75 SE9       29.75F WCI  30
CAMP DOUGLAS   NOT AVBL
$$

WIZ011>013-019>022-031-037>040-048>050-222000-
NORTHEAST WISCONSIN

CITY           SKY/WX    TMP DP  RH WIND       PRES   REMARKS
ANTIGO         FOG       32  32 100 SE12      29.76F VSB 1/2 WCI  23
SHAWANO        CLOUDY    38  33  83 SE6       29.81F HAZE    WCI  33
OCONTO         CLOUDY    35  32  89 SE10G16   29.84F WCI  28
STURGEON BAY   CLOUDY    34  28  80 SE13G18   29.86F WCI  25
GREEN BAY      CLOUDY    36  32  85 MISG      29.82F FOG
MANITOWOC      CLOUDY    36  33  89 SE13      29.84F FOG     WCI  27
APPLETON       CLOUDY    36  34  93 SE12      29.81F FOG     WCI  27
CLINTONVILLE   CLOUDY    36  32  87 SE7       29.80F HAZE    WCI  30
OSHKOSH        CLOUDY    37  32  82 SE10      29.79F HAZE    WCI  30
$$

WIZ032>034-041-042-053>061-222000-
SOUTHWEST WISCONSIN

CITY           SKY/WX    TMP DP  RH WIND       PRES   REMARKS
LA CROSSE      CLOUDY    41  33  73 SE10      29.67F
SPARTA         CLOUDY    39  33  77 SE7       29.70F WCI  34
VIROQUA        CLOUDY    36  36 100 SE14G20   29.66F WCI  27
BOSCOBEL       LGT RAIN  38  33  82 E8        29.70F WCI  32
PRAIRIE DU CHI DRIZZLE   38  32  79 E8        29.66F WCI  32
PLATTEVILLE    CLOUDY    35  34  94 E15       29.67F WCI  25
$$

WIZ056-057-062-063-064-067-068-222000-
SOUTH CENTRAL WISCONSIN

CITY           SKY/WX    TMP DP  RH WIND       PRES   REMARKS
REEDSBURG      CLOUDY    36  31  84 E8        29.72F WCI  29
BARABOO/DELLS  CLOUDY    36  30  79 E8        29.73F WCI  30
LONE ROCK      LGT RAIN  39  32  76 E14       29.71F WCI  31
MINERAL POINT  LGT SNOW  36  34  93 E9        29.67F WCI  29
MADISON        LGT SNOW  35  32  88 SE12      29.73F FOG     WCI  27
MIDDLETON      CLOUDY    36  32  87 SE10      29.73F WCI  28
WATERTOWN      CLOUDY    36  34  90 SE10      29.76F FOG     WCI  29
MONROE         DRIZZLE   34  32  93 E14       29.69F WCI  24
JANESVILLE     LGT RAIN  36  34  93 E12G17    29.73F FOG     WCI  27
$$

WIZ051-052-058>065-066-070>072-222000-
SOUTHEAST WISCONSIN

CITY           SKY/WX    TMP DP  RH WIND       PRES   REMARKS
MILWAUKEE      LGT RAIN  37  33  85 SE12      29.79F FOG     WCI  29
WAUKESHA       CLOUDY    36  30  80 E14       29.80F FOG     WCI  27
MILWAUKEE/TIMM CLOUDY    36  30  80 SE12      29.82F HAZE    WCI  27
RACINE         LGT RAIN  36  33  89 SE10      29.81F FOG     WCI  28
BURLINGTON     MIX PCPN  33  32  95 E9        29.77F WCI  26
KENOSHA        LGT SNOW  36  34  92 E10       29.78F FOG     WCI  28
FOND DU LAC    CLOUDY    38  31  76 SE14      29.78F WCI  30
SHEBOYGAN      CLOUDY    36  32  85 SE9       29.82F FOG     WCI  29
WEST BEND      CLOUDY    36  32  87 SE13      29.80F HAZE    WCI  27
JUNEAU         CLOUDY    37  32  84 E13       29.77F WCI  28
$$

LSZ147-162-222000-
LAKE SUPERIOR

STATION/POSITION TIME  TEMP    WIND        PRES    WAVE
                       AIR SEA DIR/SP/G            HT/PER
                 (UTC) (F)     (DEG/KT/KT) (MB)    (FT/S)
DEVILS ISLAND    1900   36     150/  7/  9 1007.3F
PORT WING        1800   37     150/  2/  7 1006.4F
SAXON HARBOR     1840   39     170/  4/ 13 1006.4F
$$

LMZ867-665-643>646-222000-
LAKE MICHIGAN

STATION/POSITION TIME  TEMP    WIND        PRES    WAVE
                       AIR SEA DIR/SP/G            HT/PER
                 (UTC) (F)     (DEG/KT/KT) (MB)    (FT/S)
CHAMBERS ISLAND  1800   36     130/  9/ 15 1012.2F
NORTHPORT PIER   1800   36     150/ 11/ 18 1012.5F
SISTER BAY       1813          190/ 13/ 18   N/A
ALGOMA LAKESHORE 1815          180/ 16/ 20   N/A
KEWAUNEE LAKESHO 1800   35     150/ 13/ 18 1011.0F
SHEBOYGAN LAKESH 1900   36 37  130/ 19/ 20 1010.6F
PORT WASHINGTON  1800   37     140/ 13/ 24 1011.2
MILWAUKEE LAKESH 1900   36     130/ 14/ 16   N/A
KENOSHA   LAKESH 1900   36     120/ 12/ 13 1009.1F
$$

TC  - TEMPERATURE IN CELSIUS
VSB - VISIBILITY IN STATUTE MILES
WCI - WIND CHILL INDEX
HX  - HEAT INDEX



USA.gov is the U.S. government's official web portal to all federal, state and local government web resources and services.